Location: Croisilles
(50.1998°N, 2.8793°E)
Time: 21:02:28
(UTC+00:00)

Cosmos 1812 Rocket - Pass Details

Date: 21 January 2021
Orbit: 604 x 633 km, 82.5° (Epoch: 02 March)

Event Time Altitude Azimuth Distance (km) Brightness Sun altitude
Rises 18:59:25 0° 347° (NNW) 2,916 7.2 -24.4°
Reaches altitude 10° 19:01:41 10° 344° (NNW) 2,000 6.3 -24.8°
Maximum altitude 19:06:02 61° 264° (W) 705 4.0 -25.5°
Drops below altitude 10° 19:10:20 10° 185° (S) 1,966 6.2 -26.2°
Sets 19:12:33 0° 182° (S) 2,861 7.0 -26.5°
